Regional Weather Roundup
Issued by NWS

Home | Current Version | Previous Version | Text Only | Print | Product List | Glossary Off
Versions: 1 2 3 4 5 6 7 8 9 10 11 12 13 14 15 16 17 18 19 20 21 22 23 24 25 26 27 28 29 30 31 32 33 34 35 36 37 38 39 40 41 42 43 44 45 46 47 48 49 50

000
ASUS43 KDMX 230306
RWRIA

WEATHER ROUNDUP FOR IOWA
NATIONAL WEATHER SERVICE DES MOINES IA
1000 PM CDT SAT JUL 22 2017

NOTE: "FAIR" INDICATES FEW OR NO CLOUDS BELOW 12,000 FEET WITH NO
SIGNIFICANT WEATHER AND/OR OBSTRUCTIONS TO VISIBILITY.

* - THESE STATIONS ARE NOT NWS STATIONS...THUS NOT UNDER NWS
QUALITY CONTROL.  THEY ALSO DO NOT REPORT WEATHER SUCH
AS PRECIPITATION OR FOG.

IAZ001>003-012>014-020>022-031>034-043>046-230400-
   NORTHWEST IOWA

CITY           SKY/WX    TMP DP  RH WIND       PRES   REMARKS
CARROLL *      CLOUDY    75  75 100 W7        29.91R
CHEROKEE *     CLEAR     71  69  94 CALM      29.92R
DENISON *      MOCLDY    73  73 100 CALM      29.94R
ORANGE CITY *  CLEAR     73  70  88 CALM      29.93R
SHELDON *      CLEAR     68  66  94 CALM      29.90S
SIOUX CITY       N/A     72  71  97 CALM      29.92R
SPENCER        CLEAR     71  68  90 W7        29.91R
STORM LAKE *   CLEAR     73  70  88 W5        29.93R
$$

IAZ055>058-069>071-079>083-090>094-230400-
   SOUTHWEST IOWA

CITY           SKY/WX    TMP DP  RH WIND       PRES   REMARKS
ATLANTIC *     CLOUDY    77  75  94 W7        29.92R
AUDUBON *      CLOUDY    77  73  88 NW3       29.93R
CLARINDA *       N/A     79  79 100 N6        29.94R HX  83
COUNCIL BLFS * DRIZZLE   77  77 100 NE10      29.90F
CRESTON *      CLOUDY    81  75  83 CALM      29.93R HX  86
HARLAN  *      CLOUDY    75  75 100 SW5       29.96R
LAMONI         CLOUDY    80  74  81 NE6       29.88S HX  85
RED OAK *      CLOUDY    79  77  94 NE3       29.93R HX  83
SHENANDOAH *   CLOUDY    81  77  89 N8        29.92R HX  88
$$

IAZ047>049-059>061-072>074-084-230400-
   CENTRAL IOWA

CITY           SKY/WX    TMP DP  RH WIND       PRES   REMARKS
AMES             N/A     78  77  96 W5        29.88R HX  81
ANKENY *       CLOUDY    79  73  83 CALM      29.88R HX  82
BOONE *        MOCLDY    79  73  83 W5        29.89R HX  82
CHARITON *     CLOUDY    81  73  78 CALM      29.88R HX  85
DES MOINES     CLOUDY    83  73  72 N5        29.87R HX  89
GRINNELL*      CLOUDY    77  73  86 CALM      29.88S
KNOXVILLE *    CLOUDY    79  73  83 NW3       29.86R HX  82
MARSHALLTOWN     N/A     77  75  93 W3        29.87R
NEWTON *       PTCLDY    77  73  88 W3        29.87R
PELLA *        CLOUDY    78  73  84 CALM      29.88R HX  80
$$

IAZ004>006-015-016-023>025-035-036-230400-
   NORTH CENTRAL IOWA

CITY           SKY/WX    TMP DP  RH WIND       PRES   REMARKS
ALGONA *       CLEAR     73  72  94 CALM      29.91R
CLARION *      MOCLDY    77  77 100 NW5       29.89
ESTHERVILLE    CLEAR     70  69  97 W3        29.90R
FORT DODGE *   CLOUDY    75  70  83 CALM      29.91R
MASON CITY     PTCLDY    74  70  87 NW7       29.90R
FOREST CITY *    N/A     73  72  94 NW3       29.89R
WEBSTER CITY * CLOUDY    75  75 100 SW6       29.87R
IOWA FALLS *     N/A     77  74  90 W6        29.89S
$$

IAZ007>011-017>019-026>030-037>042-050>054-066-230400-
   NORTHEAST IOWA

CITY           SKY/WX    TMP DP  RH WIND       PRES   REMARKS
CEDAR RAPIDS   PTCLDY    75  75 100 NW5       29.84S
CHARLES CITY * CLOUDY    75  75 100 W6        29.87R
DECORAH *      CLOUDY    75  73  94 CALM      29.85R
DUBUQUE        CLOUDY    76  74  93 CALM      29.85R
MONTICELLO *     N/A     77  75  94 W5        29.83S
OELWEIN *        N/A    N/A N/A N/A MISG        N/A
WATERLOO       PTCLDY    75  72  90 W5        29.85R
$$

IAZ064-065-067-068-078-230400-
   EAST CENTRAL IOWA

CITY           SKY/WX    TMP DP  RH WIND       PRES   REMARKS
DAVENPORT      CLEAR     75  73  93 NW3       29.85R
IOWA CITY      MOCLDY    80  74  81 NW6       29.85S HX  85
MT. PLEASANT * PTCLDY    77  77  98 N5        29.85R
MUSCATINE *    CLOUDY    77  75  94 NW5       29.84R
QUAD CITIES    PTCLDY    78  73  84 CALM      29.81S HX  81
$$

IAZ062-063-075>077-085>089-095>099-230400-
   SOUTHEAST IOWA

CITY           SKY/WX    TMP DP  RH WIND       PRES   REMARKS
BURLINGTON     PTCLDY    81  77  88 N5        29.84R HX  88
FAIRFIELD *    PTCLDY    75  73  94 NW7       29.85R
FORT MADISON * MOCLDY    81  79  94 N5        29.85R HX  89
KEOKUK *       CLOUDY    82  79  89 N6        29.83R HX  93
OSKALOOSA *      N/A     76  72  87 CALM      29.87R
CENTERVILLE *    N/A     77  73  88 CALM      29.90R
OTTUMWA        PTCLDY    77  74  90 NW3       29.86R
WASHINGTON *   PTCLDY    77  75  94 CALM      29.86R
$$

ABBREVIATIONS USED IN REMARKS
   TC - TEMPERATURES IN CELSIUS
  WCI - WIND CHILL INDEX
   HX - HEAT INDEX
  VSB - VISIBILITY
$$





USA.gov is the U.S. government's official web portal to all federal, state and local government web resources and services.